Time,TemperatureF,DewpointF,PressureIn,WindDirection,WindDirectionDegrees,WindSpeedMPH,WindSpeedGustMPH,Humidity,HourlyPrecipIn,Conditions,Clouds,dailyrainin,SolarRadiationWatts/m^2,SoftwareType,DateUTC
2013-02-12 00:00:00,67.6,65.8,30.07,SSE,161,2.3,2.3,94,0.00,CLR,,0.00,0.0,WeatherDisplay:10.37,2013-02-12 05:00:00,
2013-02-12 00:05:00,67.7,65.9,30.07,South,191,3.4,3.4,94,0.00,CLR,,0.00,0.0,WeatherDisplay:10.37,2013-02-12 05:05:00,
2013-02-12 00:12:00,67.7,65.9,30.07,SSE,165,2.3,2.3,94,0.00,CLR,,0.00,0.0,WeatherDisplay:10.37,2013-02-12 05:12:00,
2013-02-12 00:18:00,67.8,66.0,30.07,South,169,3.4,3.4,94,0.00,CLR,,0.00,0.0,WeatherDisplay:10.37,2013-02-12 05:18:00,
2013-02-12 00:42:00,68.0,66.2,30.07,SSE,152,2.3,2.3,94,0.00,CLR,,0.00,0.0,WeatherDisplay:10.37,2013-02-12 05:42:00,
2013-02-12 00:56:00,68.3,66.5,30.07,SSE,168,5.8,5.8,94,0.00,CLR,,0.00,0.0,WeatherDisplay:10.37,2013-02-12 05:56:00,
2013-02-12 01:00:00,68.3,66.2,30.07,South,182,3.4,3.4,93,0.00,CLR,,0.00,0.0,WeatherDisplay:10.37,2013-02-12 06:00:00,
2013-02-12 01:01:00,68.3,66.5,30.07,SSE,158,2.3,2.3,94,0.00,CLR,,0.00,0.0,WeatherDisplay:10.37,2013-02-12 06:01:00,
2013-02-12 01:06:00,68.3,66.2,30.07,SE,136,2.3,2.3,93,0.00,CLR,,0.00,0.0,WeatherDisplay:10.37,2013-02-12 06:06:00,
2013-02-12 01:11:00,68.4,66.3,30.07,South,181,2.3,2.3,93,0.00,CLR,,0.00,0.0,WeatherDisplay:10.37,2013-02-12 06:11:00,
2013-02-12 01:39:00,68.3,66.5,30.07,SSE,155,4.6,4.6,94,0.00,CLR,,0.00,0.0,WeatherDisplay:10.37,2013-02-12 06:39:00,
2013-02-12 01:56:00,68.3,66.5,30.06,SSE,148,3.4,3.4,94,0.00,CLR,,0.00,0.0,WeatherDisplay:10.37,2013-02-12 06:56:00,
2013-02-12 02:00:00,68.3,66.5,30.06,SE,140,6.9,6.9,94,0.00,CLR,,0.00,0.0,WeatherDisplay:10.37,2013-02-12 07:00:00,
2013-02-12 02:01:00,68.3,66.5,30.06,SE,145,3.4,3.4,94,0.00,CLR,,0.00,0.0,WeatherDisplay:10.37,2013-02-12 07:01:00,
2013-02-12 02:06:00,68.3,66.2,30.06,South,178,3.4,3.4,93,0.00,CLR,,0.00,0.0,WeatherDisplay:10.37,2013-02-12 07:06:00,
2013-02-12 02:14:00,68.2,66.4,30.06,SE,138,7.0,7.0,94,0.00,CLR,,0.00,0.0,WeatherDisplay:10.37,2013-02-12 07:14:00,
2013-02-12 02:22:00,68.2,66.4,30.05,South,175,3.4,3.4,94,0.00,CLR,,0.00,0.0,WeatherDisplay:10.37,2013-02-12 07:22:00,
2013-02-12 02:27:00,68.2,66.4,30.05,SSW,200,3.4,3.4,94,0.00,CLR,,0.00,0.0,WeatherDisplay:10.37,2013-02-12 07:27:00,
2013-02-12 02:33:00,68.1,66.3,30.05,South,173,2.3,2.3,94,0.00,CLR,,0.00,0.0,WeatherDisplay:10.37,2013-02-12 07:33:00,
2013-02-12 02:44:00,68.1,66.3,30.05,SSE,155,3.4,3.4,94,0.00,CLR,,0.00,0.0,WeatherDisplay:10.37,2013-02-12 07:44:00,
2013-02-12 02:50:00,68.2,66.1,30.05,SW,223,4.6,4.6,93,0.00,CLR,,0.00,0.0,WeatherDisplay:10.37,2013-02-12 07:50:00,
2013-02-12 02:56:00,68.2,66.1,30.04,SSE,157,3.4,3.4,93,0.00,CLR,,0.00,0.0,WeatherDisplay:10.37,2013-02-12 07:56:00,
2013-02-12 03:00:00,68.0,65.9,30.04,SSE,151,3.4,3.4,93,0.00,CLR,,0.00,0.0,WeatherDisplay:10.37,2013-02-12 08:00:00,
2013-02-12 03:01:00,68.1,66.0,30.04,SSE,161,4.6,4.6,93,0.00,CLR,,0.00,0.0,WeatherDisplay:10.37,2013-02-12 08:01:00,
2013-02-12 03:06:00,68.1,66.0,30.04,SSE,161,3.4,3.4,93,0.00,CLR,,0.00,0.0,WeatherDisplay:10.37,2013-02-12 08:06:00,
2013-02-12 03:12:00,68.0,65.9,30.04,South,169,3.4,3.4,93,0.00,CLR,,0.00,0.0,WeatherDisplay:10.37,2013-02-12 08:12:00,
2013-02-12 03:56:00,67.2,65.7,30.03,SSE,153,4.6,4.6,95,0.00,CLR,,0.00,0.0,WeatherDisplay:10.37,2013-02-12 08:56:00,
2013-02-12 04:00:00,66.9,65.4,30.03,SSE,157,4.0,4.0,95,0.00,CLR,,0.00,0.0,WeatherDisplay:10.37,2013-02-12 09:00:00,
2013-02-12 04:01:00,67.1,65.6,30.03,SSE,150,4.6,4.6,95,0.00,CLR,,0.00,0.0,WeatherDisplay:10.37,2013-02-12 09:01:00,
2013-02-12 04:06:00,67.0,65.5,30.03,South,171,1.1,1.1,95,0.00,CLR,,0.00,0.0,WeatherDisplay:10.37,2013-02-12 09:06:00,
2013-02-12 04:37:00,67.0,65.8,30.03,SSE,155,3.4,3.4,96,0.00,CLR,,0.00,0.0,WeatherDisplay:10.37,2013-02-12 09:37:00,
2013-02-12 04:46:00,67.0,65.8,30.03,SSE,153,5.0,5.0,96,0.00,CLR,,0.00,0.0,WeatherDisplay:10.37,2013-02-12 09:46:00,
2013-02-12 04:52:00,67.1,65.9,30.03,SSE,155,3.4,3.4,96,0.00,CLR,,0.00,0.0,WeatherDisplay:10.37,2013-02-12 09:52:00,
2013-02-12 04:57:00,67.0,65.8,30.03,SSE,155,3.4,3.4,96,0.00,CLR,,0.00,0.0,WeatherDisplay:10.37,2013-02-12 09:57:00,
2013-02-12 05:00:00,66.9,65.7,30.03,SSE,151,3.4,3.4,96,0.00,CLR,,0.00,0.0,WeatherDisplay:10.37,2013-02-12 10:00:00,
2013-02-12 05:02:00,66.9,65.7,30.03,SSE,155,3.4,3.4,96,0.00,CLR,,0.00,0.0,WeatherDisplay:10.37,2013-02-12 10:02:00,
2013-02-12 05:07:00,67.0,65.8,30.03,SSE,148,3.4,3.4,96,0.00,CLR,,0.00,0.0,WeatherDisplay:10.37,2013-02-12 10:07:00,
2013-02-12 05:24:00,66.7,65.5,30.03,SE,141,4.6,4.6,96,0.00,CLR,,0.00,0.0,WeatherDisplay:10.37,2013-02-12 10:24:00,
2013-02-12 05:33:00,66.7,65.5,30.03,SE,138,4.6,4.6,96,0.00,CLR,,0.00,0.0,WeatherDisplay:10.37,2013-02-12 10:33:00,
2013-02-12 05:53:00,66.5,65.3,30.04,SSE,152,1.1,1.1,96,0.00,CLR,,0.00,0.0,WeatherDisplay:10.37,2013-02-12 10:53:00,
2013-02-12 05:58:00,66.4,65.5,30.03,SSE,152,2.3,2.3,97,0.00,CLR,,0.00,0.0,WeatherDisplay:10.37,2013-02-12 10:58:00,
2013-02-12 06:00:00,66.2,65.3,30.04,SSE,152,1.1,1.1,97,0.00,CLR,,0.00,0.0,WeatherDisplay:10.37,2013-02-12 11:00:00,
2013-02-12 06:03:00,66.4,65.5,30.04,SSE,152,1.1,1.1,97,0.00,CLR,,0.00,0.0,WeatherDisplay:10.37,2013-02-12 11:03:00,
2013-02-12 06:08:00,66.2,65.0,30.04,SSE,152,2.3,2.3,96,0.00,CLR,,0.00,0.0,WeatherDisplay:10.37,2013-02-12 11:08:00,
2013-02-12 06:17:00,66.4,65.5,30.04,SSE,152,2.3,2.3,97,0.00,CLR,,0.00,0.0,WeatherDisplay:10.37,2013-02-12 11:17:00,
2013-02-12 06:36:00,67.0,66.1,30.04,SSE,150,4.6,4.6,97,0.00,CLR,,0.00,0.0,WeatherDisplay:10.37,2013-02-12 11:36:00,
2013-02-12 06:56:00,67.7,66.8,30.05,SSE,157,3.4,3.4,97,0.00,CLR,,0.00,0.0,WeatherDisplay:10.37,2013-02-12 11:56:00,
2013-02-12 07:00:00,68.1,67.2,30.05,SSE,157,3.4,3.4,97,0.00,OVC,,0.00,0.0,WeatherDisplay:10.37,2013-02-12 12:00:00,
2013-02-12 07:01:00,67.9,67.0,30.05,SSE,157,4.6,4.6,97,0.00,OVC,,0.00,0.0,WeatherDisplay:10.37,2013-02-12 12:01:00,
2013-02-12 07:06:00,68.0,67.1,30.05,SSE,157,3.4,3.4,97,0.00,OVC,,0.00,0.0,WeatherDisplay:10.37,2013-02-12 12:06:00,
2013-02-12 07:16:00,68.2,67.3,30.06,SSE,157,3.4,3.4,97,0.00,OVC,,0.00,0.0,WeatherDisplay:10.37,2013-02-12 12:16:00,
2013-02-12 07:24:00,68.4,67.5,30.06,SSE,157,4.0,4.0,97,0.00,OVC,,0.00,9.0,WeatherDisplay:10.37,2013-02-12 12:24:00,
2013-02-12 07:38:00,68.4,67.2,30.06,SSE,157,3.4,3.4,96,0.00,OVC,,0.00,21.0,WeatherDisplay:10.37,2013-02-12 12:38:00,
2013-02-12 07:56:00,68.9,67.7,30.06,SSE,150,3.4,3.4,96,0.00,OVC,,0.00,33.0,WeatherDisplay:10.37,2013-02-12 12:56:00,
2013-02-12 08:00:00,69.5,68.0,30.06,SSE,167,2.3,2.3,95,0.00,OVC,,0.00,51.0,WeatherDisplay:10.37,2013-02-12 13:00:00,
2013-02-12 08:01:00,69.2,68.0,30.06,SSE,153,4.6,4.6,96,0.00,OVC,,0.00,47.0,WeatherDisplay:10.37,2013-02-12 13:01:00,
2013-02-12 08:06:00,69.4,67.9,30.06,SSE,150,4.6,4.6,95,0.00,OVC,,0.00,67.0,WeatherDisplay:10.37,2013-02-12 13:06:00,
2013-02-12 08:15:00,69.7,68.2,30.06,SSE,163,2.3,2.3,95,0.00,OVC,,0.00,65.0,WeatherDisplay:10.37,2013-02-12 13:15:00,
2013-02-12 08:28:00,70.4,68.6,30.07,SSE,149,4.6,4.6,94,0.00,OVC,,0.00,185.0,WeatherDisplay:10.37,2013-02-12 13:28:00,
2013-02-12 08:49:00,71.5,69.1,30.07,SE,141,10.3,10.3,92,0.00,OVC,,0.00,63.0,WeatherDisplay:10.37,2013-02-12 13:49:00,
2013-02-12 08:54:00,71.4,69.0,30.07,SSE,168,3.4,3.4,92,0.00,OVC,,0.00,95.0,WeatherDisplay:10.37,2013-02-12 13:54:00,
2013-02-12 08:59:00,71.5,69.1,30.07,SSE,166,3.4,3.4,92,0.00,OVC,,0.00,244.0,WeatherDisplay:10.37,2013-02-12 13:59:00,
2013-02-12 09:00:00,72.0,69.2,30.07,SSE,152,6.9,6.9,91,0.00,OVC,,0.00,118.0,WeatherDisplay:10.37,2013-02-12 14:00:00,
2013-02-12 09:04:00,71.9,69.1,30.07,SSE,153,4.6,4.6,91,0.00,OVC,,0.00,121.0,WeatherDisplay:10.37,2013-02-12 14:04:00,
2013-02-12 09:09:00,72.0,69.2,30.07,SSE,150,11.0,11.0,91,0.00,OVC,,0.00,127.0,WeatherDisplay:10.37,2013-02-12 14:09:00,
2013-02-12 09:49:00,74.0,69.9,30.08,SSW,202,4.6,4.6,87,0.00,OVC,,0.00,199.0,WeatherDisplay:10.37,2013-02-12 14:49:00,
2013-02-12 09:55:00,73.8,69.3,30.08,SW,227,5.8,5.8,86,0.00,OVC,,0.00,266.0,WeatherDisplay:10.37,2013-02-12 14:55:00,
2013-02-12 10:00:00,73.8,69.3,30.08,SSE,155,10.3,10.3,86,0.00,OVC,,0.00,278.0,WeatherDisplay:10.37,2013-02-12 15:00:00,
2013-02-12 10:05:00,74.3,69.8,30.08,SSE,160,6.9,6.9,86,0.00,OVC,,0.00,299.0,WeatherDisplay:10.37,2013-02-12 15:05:00,
2013-02-12 10:13:00,74.9,69.7,30.07,SSE,158,8.1,8.1,84,0.00,OVC,,0.00,209.0,WeatherDisplay:10.37,2013-02-12 15:13:00,
2013-02-12 10:21:00,75.1,69.2,30.07,SW,221,11.5,11.5,82,0.00,OVC,,0.00,197.0,WeatherDisplay:10.37,2013-02-12 15:21:00,
2013-02-12 10:33:00,74.7,69.2,30.07,South,190,5.8,5.8,83,0.00,OVC,,0.00,190.0,WeatherDisplay:10.37,2013-02-12 15:33:00,
2013-02-12 10:48:00,76.7,70.1,30.07,SE,130,11.5,11.5,80,0.00,SCT,,0.00,772.0,WeatherDisplay:10.37,2013-02-12 15:48:00,
2013-02-12 10:55:00,77.1,70.5,30.07,SW,219,6.9,6.9,80,0.00,SCT,,0.00,756.0,WeatherDisplay:10.37,2013-02-12 15:55:00,
2013-02-12 11:00:00,77.3,70.3,30.07,SSE,147,10.0,10.0,79,0.00,OVC,,0.00,338.0,WeatherDisplay:10.37,2013-02-12 16:00:00,
2013-02-12 11:05:00,76.4,69.8,30.07,SSW,196,5.8,5.8,80,0.00,OVC,,0.00,257.0,WeatherDisplay:10.37,2013-02-12 16:05:00,
2013-02-12 11:11:00,77.8,71.1,30.07,SW,227,5.0,5.0,80,0.00,SCT,,0.00,846.0,WeatherDisplay:10.37,2013-02-12 16:11:00,
2013-02-12 11:40:00,77.0,70.0,30.06,SE,140,10.3,10.3,79,0.00,OVC,,0.00,322.0,WeatherDisplay:10.37,2013-02-12 16:40:00,
2013-02-12 11:47:00,77.5,70.1,30.06,SSE,167,8.1,8.1,78,0.00,BKN,,0.00,512.0,WeatherDisplay:10.37,2013-02-12 16:47:00,
2013-02-12 11:53:00,78.2,70.4,30.05,South,175,8.1,8.1,77,0.00,SCT,,0.00,821.0,WeatherDisplay:10.37,2013-02-12 16:53:00,
2013-02-12 11:58:00,78.7,70.1,30.05,SSE,151,11.5,11.5,75,0.00,SCT,,0.00,835.0,WeatherDisplay:10.37,2013-02-12 16:58:00,
2013-02-12 12:00:00,78.7,70.1,30.05,SW,222,5.8,5.8,75,0.00,SCT,,0.00,742.0,WeatherDisplay:10.37,2013-02-12 17:00:00,
2013-02-12 12:03:00,78.7,70.1,30.05,SW,222,5.8,5.8,75,0.00,SCT,,0.00,742.0,WeatherDisplay:10.37,2013-02-12 17:03:00,
2013-02-12 12:08:00,78.7,70.1,30.05,SW,222,5.8,5.8,75,0.00,SCT,,0.00,742.0,WeatherDisplay:10.37,2013-02-12 17:08:00,
2013-02-12 12:22:00,79.8,70.8,30.04,SSE,160,8.1,8.1,74,0.00,SCT,,0.00,684.0,WeatherDisplay:10.37,2013-02-12 17:22:00,
2013-02-12 12:28:00,79.8,70.8,30.04,SSE,160,2.3,2.4,74,0.00,SCT,,0.00,684.0,WeatherDisplay:10.37,2013-02-12 17:28:00,
2013-02-12 12:37:00,79.3,70.3,30.03,South,191,3.4,3.8,74,0.00,SCT,,0.00,796.0,WeatherDisplay:10.37,2013-02-12 17:37:00,
2013-02-12 12:54:00,79.8,71.2,30.01,South,177,5.8,5.8,75,0.00,SCT,,0.00,853.0,WeatherDisplay:10.37,2013-02-12 17:54:00,
2013-02-12 12:59:00,79.8,71.2,30.01,South,177,3.4,3.4,75,0.00,SCT,,0.00,853.0,WeatherDisplay:10.37,2013-02-12 17:59:00,
2013-02-12 13:00:00,80.1,70.3,30.01,SW,218,3.4,8.3,72,0.00,OVC,,0.00,225.0,WeatherDisplay:10.37,2013-02-12 18:00:00,
2013-02-12 13:04:00,80.1,70.3,30.01,SW,218,3.4,8.3,72,0.00,OVC,,0.00,225.0,WeatherDisplay:10.37,2013-02-12 18:04:00,
2013-02-12 13:09:00,80.1,70.3,30.01,SW,218,3.4,8.3,72,0.00,OVC,,0.00,225.0,WeatherDisplay:10.37,2013-02-12 18:09:00,
2013-02-12 13:31:00,80.1,70.7,29.98,WSW,238,6.9,6.9,73,0.00,OVC,,0.00,297.0,WeatherDisplay:10.37,2013-02-12 18:31:00,
2013-02-12 13:36:00,80.1,70.7,29.98,WSW,238,2.3,3.1,73,0.00,OVC,,0.00,297.0,WeatherDisplay:10.37,2013-02-12 18:36:00,
2013-02-12 13:41:00,79.7,70.7,29.98,SSE,161,4.6,4.9,74,0.00,SCT,,0.00,819.0,WeatherDisplay:10.37,2013-02-12 18:41:00,
2013-02-12 13:53:00,79.2,70.2,29.97,SSE,167,6.9,6.9,74,0.00,OVC,,0.00,220.0,WeatherDisplay:10.37,2013-02-12 18:53:00,
2013-02-12 13:58:00,79.2,70.2,29.97,East,84,1.1,4.3,74,0.00,OVC,,0.00,176.0,WeatherDisplay:10.37,2013-02-12 18:58:00,
2013-02-12 14:00:00,79.1,70.1,29.96,SSE,157,5.8,5.8,74,0.00,OVC,,0.00,174.0,WeatherDisplay:10.37,2013-02-12 19:00:00,
2013-02-12 14:03:00,79.1,70.1,29.96,SSE,157,5.8,5.8,74,0.00,OVC,,0.00,174.0,WeatherDisplay:10.37,2013-02-12 19:03:00,
2013-02-12 14:08:00,79.1,70.1,29.96,SSE,157,5.8,5.8,74,0.00,OVC,,0.00,174.0,WeatherDisplay:10.37,2013-02-12 19:08:00,
2013-02-12 14:13:00,79.0,69.6,29.95,South,173,19.5,19.5,73,0.00,OVC,,0.00,780.0,WeatherDisplay:10.37,2013-02-12 19:13:00,
2013-02-12 14:28:00,80.0,70.2,29.95,South,170,6.9,6.9,72,0.00,FEW,,0.00,715.0,WeatherDisplay:10.37,2013-02-12 19:28:00,
2013-02-12 14:33:00,80.1,70.3,29.96,SSW,204,8.1,8.1,72,0.00,FEW,,0.00,708.0,WeatherDisplay:10.37,2013-02-12 19:33:00,
2013-02-12 14:43:00,80.5,70.2,29.95,WSW,249,5.8,5.8,71,0.00,FEW,,0.00,686.0,WeatherDisplay:10.37,2013-02-12 19:43:00,
2013-02-12 14:51:00,79.8,69.6,29.95,SSW,209,10.3,10.3,71,0.00,FEW,,0.00,698.0,WeatherDisplay:10.37,2013-02-12 19:51:00,
2013-02-12 14:56:00,79.7,69.9,29.95,SSE,161,2.3,5.0,72,0.00,OVC,,0.00,179.0,WeatherDisplay:10.37,2013-02-12 19:56:00,
2013-02-12 15:00:00,79.4,70.4,29.96,SE,139,3.4,3.4,74,0.00,CLR,,0.00,715.0,WeatherDisplay:10.37,2013-02-12 20:00:00,
2013-02-12 15:01:00,78.8,69.8,29.95,SSE,151,9.0,9.0,74,0.00,OVC,,0.00,167.0,WeatherDisplay:10.37,2013-02-12 20:01:00,
2013-02-12 15:06:00,79.4,70.4,29.96,SE,139,9.2,9.2,74,0.00,FEW,,0.00,715.0,WeatherDisplay:10.37,2013-02-12 20:06:00,
2013-02-12 15:28:00,79.1,69.7,29.96,West,266,6.9,6.9,73,0.00,OVC,,0.00,209.0,WeatherDisplay:10.37,2013-02-12 20:28:00,
2013-02-12 15:39:00,78.2,70.0,29.95,SSW,207,5.8,5.8,76,0.00,OVC,,0.00,221.0,WeatherDisplay:10.37,2013-02-12 20:39:00,
2013-02-12 15:46:00,78.2,70.0,29.94,South,173,6.9,6.9,76,0.00,SCT,,0.00,448.0,WeatherDisplay:10.37,2013-02-12 20:46:00,
2013-02-12 15:56:00,78.5,70.3,29.95,South,180,4.6,4.6,76,0.00,BKN,,0.00,299.0,WeatherDisplay:10.37,2013-02-12 20:56:00,
2013-02-12 16:00:00,77.8,69.2,29.95,South,169,6.9,6.9,75,0.00,BKN,,0.00,206.0,WeatherDisplay:10.37,2013-02-12 21:00:00,
2013-02-12 16:01:00,78.3,69.7,29.95,SW,230,8.1,8.1,75,0.00,BKN,,0.00,232.0,WeatherDisplay:10.37,2013-02-12 21:01:00,
2013-02-12 16:06:00,77.8,69.6,29.95,SW,215,6.9,6.9,76,0.00,BKN,,0.00,216.0,WeatherDisplay:10.37,2013-02-12 21:06:00,
2013-02-12 16:37:00,77.0,69.6,29.95,SSE,150,8.1,8.1,78,0.00,BKN,,0.00,158.0,WeatherDisplay:10.37,2013-02-12 21:37:00,
2013-02-12 16:56:00,76.7,69.3,29.94,SE,146,10.3,10.3,78,0.00,BKN,,0.00,130.0,WeatherDisplay:10.37,2013-02-12 21:56:00,
2013-02-12 17:00:00,76.5,69.5,29.93,SSE,167,5.8,5.8,79,0.00,SCT,,0.00,153.0,WeatherDisplay:10.37,2013-02-12 22:00:00,
2013-02-12 17:01:00,76.6,69.2,29.94,SW,225,6.9,6.9,78,0.00,BKN,,0.00,114.0,WeatherDisplay:10.37,2013-02-12 22:01:00,
2013-02-12 17:06:00,76.4,69.4,29.94,SSE,153,9.0,9.0,79,0.00,BKN,,0.00,134.0,WeatherDisplay:10.37,2013-02-12 22:06:00,
2013-02-12 17:14:00,76.6,69.2,29.93,WSW,250,4.6,4.6,78,0.00,CLR,,0.00,244.0,WeatherDisplay:10.37,2013-02-12 22:14:00,
2013-02-12 17:19:00,76.8,69.0,29.93,SW,236,8.1,8.1,77,0.00,CLR,,0.00,213.0,WeatherDisplay:10.37,2013-02-12 22:19:00,
2013-02-12 17:34:00,76.2,69.2,29.93,South,178,10.3,10.3,79,0.00,FEW,,0.00,102.0,WeatherDisplay:10.37,2013-02-12 22:34:00,
2013-02-12 17:53:00,75.1,69.2,29.93,SSE,165,9.2,9.2,82,0.00,BKN,,0.00,28.0,WeatherDisplay:10.37,2013-02-12 22:53:00,
2013-02-12 17:58:00,74.8,69.3,29.93,SSW,211,5.8,5.8,83,0.00,BKN,,0.00,26.0,WeatherDisplay:10.37,2013-02-12 22:58:00,
2013-02-12 18:00:00,74.3,69.1,29.93,SE,143,7.0,7.0,84,0.00,FEW,,0.00,18.0,WeatherDisplay:10.37,2013-02-12 23:00:00,
2013-02-12 18:03:00,74.6,69.1,29.93,SSE,159,8.1,8.1,83,0.00,SCT,,0.00,25.0,WeatherDisplay:10.37,2013-02-12 23:03:00,
2013-02-12 18:08:00,74.4,69.2,29.93,SSE,149,3.4,3.4,84,0.00,SCT,,0.00,19.0,WeatherDisplay:10.37,2013-02-12 23:08:00,
2013-02-12 18:14:00,74.1,69.0,29.93,South,186,8.1,8.1,84,0.00,CLR,,0.00,11.0,WeatherDisplay:10.37,2013-02-12 23:14:00,
2013-02-12 18:56:00,72.7,69.6,29.93,SSW,206,4.6,4.6,90,0.00,CLR,,0.00,0.0,WeatherDisplay:10.37,2013-02-12 23:56:00,
2013-02-12 19:00:00,72.6,69.8,29.93,SW,217,9.2,9.2,91,0.00,CLR,,0.00,0.0,WeatherDisplay:10.37,2013-02-13 00:00:00,
2013-02-12 19:01:00,72.7,69.6,29.93,SW,225,6.9,6.9,90,0.00,CLR,,0.00,0.0,WeatherDisplay:10.37,2013-02-13 00:01:00,
2013-02-12 19:06:00,72.7,69.9,29.93,SSW,196,6.9,6.9,91,0.00,CLR,,0.00,0.0,WeatherDisplay:10.37,2013-02-13 00:06:00,
2013-02-12 19:24:00,72.1,69.3,29.93,SSE,153,3.4,3.4,91,0.00,CLR,,0.00,0.0,WeatherDisplay:10.37,2013-02-13 00:24:00,
2013-02-12 19:42:00,71.8,69.3,29.94,SSE,163,4.0,4.0,92,0.00,CLR,,0.00,0.0,WeatherDisplay:10.37,2013-02-13 00:42:00,
2013-02-12 19:56:00,71.5,69.1,29.94,SSE,157,2.3,2.3,92,0.00,CLR,,0.00,0.0,WeatherDisplay:10.37,2013-02-13 00:56:00,
2013-02-12 20:00:00,71.0,68.6,29.94,South,187,3.4,3.4,92,0.00,CLR,,0.00,0.0,WeatherDisplay:10.37,2013-02-13 01:00:00,
2013-02-12 20:01:00,71.3,68.9,29.94,SSE,167,3.4,3.4,92,0.00,CLR,,0.00,0.0,WeatherDisplay:10.37,2013-02-13 01:01:00,
2013-02-12 20:06:00,71.2,68.8,29.94,SSE,153,3.4,3.4,92,0.00,CLR,,0.00,0.0,WeatherDisplay:10.37,2013-02-13 01:06:00,
2013-02-12 20:56:00,70.4,68.6,29.94,SSE,153,4.6,4.6,94,0.00,CLR,,0.00,0.0,WeatherDisplay:10.37,2013-02-13 01:56:00,
2013-02-12 21:00:00,70.6,68.8,29.94,South,176,4.6,4.6,94,0.00,CLR,,0.00,0.0,WeatherDisplay:10.37,2013-02-13 02:00:00,
2013-02-12 21:01:00,70.5,68.7,29.94,SE,133,6.9,6.9,94,0.00,CLR,,0.00,0.0,WeatherDisplay:10.37,2013-02-13 02:01:00,
2013-02-12 21:06:00,70.6,68.8,29.94,South,173,4.6,4.6,94,0.00,CLR,,0.00,0.0,WeatherDisplay:10.37,2013-02-13 02:06:00,
2013-02-12 21:12:00,70.6,68.8,29.94,SSE,156,3.4,3.4,94,0.00,CLR,,0.00,0.0,WeatherDisplay:10.37,2013-02-13 02:12:00,
2013-02-12 21:24:00,70.5,68.7,29.95,West,259,4.6,4.6,94,0.00,CLR,,0.00,0.0,WeatherDisplay:10.37,2013-02-13 02:24:00,
2013-02-12 21:57:00,70.8,69.3,29.95,South,175,3.4,3.4,95,0.00,CLR,,0.00,0.0,WeatherDisplay:10.37,2013-02-13 02:57:00,
2013-02-12 22:00:00,71.1,69.6,29.95,SW,234,5.8,5.8,95,0.00,CLR,,0.00,0.0,WeatherDisplay:10.37,2013-02-13 03:00:00,
2013-02-12 22:02:00,70.9,69.4,29.95,South,178,3.4,3.4,95,0.00,CLR,,0.00,0.0,WeatherDisplay:10.37,2013-02-13 03:02:00,
2013-02-12 22:07:00,71.1,69.6,29.95,SSE,150,4.6,4.6,95,0.00,CLR,,0.00,0.0,WeatherDisplay:10.37,2013-02-13 03:07:00,
2013-02-12 22:17:00,71.3,69.8,29.95,South,180,8.1,8.1,95,0.00,CLR,,0.00,0.0,WeatherDisplay:10.37,2013-02-13 03:17:00,
2013-02-12 22:27:00,71.3,69.8,29.95,SSE,161,5.0,5.0,95,0.00,CLR,,0.00,0.0,WeatherDisplay:10.37,2013-02-13 03:27:00,
2013-02-12 22:56:00,70.8,69.3,29.95,SE,146,2.3,2.3,95,0.00,CLR,,0.00,0.0,WeatherDisplay:10.37,2013-02-13 03:56:00,
2013-02-12 23:00:00,70.7,69.2,29.94,SW,236,5.0,5.0,95,0.00,CLR,,0.00,0.0,WeatherDisplay:10.37,2013-02-13 04:00:00,
2013-02-12 23:01:00,70.8,69.3,29.94,SSE,153,4.6,4.6,95,0.00,CLR,,0.00,0.0,WeatherDisplay:10.37,2013-02-13 04:01:00,
2013-02-12 23:06:00,70.7,69.2,29.94,South,176,3.4,3.4,95,0.00,CLR,,0.00,0.0,WeatherDisplay:10.37,2013-02-13 04:06:00,
2013-02-12 23:12:00,70.7,69.2,29.95,SE,145,4.6,4.6,95,0.00,CLR,,0.00,0.0,WeatherDisplay:10.37,2013-02-13 04:12:00,
2013-02-12 23:17:00,70.7,69.2,29.94,SSE,149,9.2,9.2,95,0.00,CLR,,0.00,0.0,WeatherDisplay:10.37,2013-02-13 04:17:00,
2013-02-12 23:30:00,70.6,69.1,29.94,SSE,157,6.9,6.9,95,0.00,CLR,,0.00,0.0,WeatherDisplay:10.37,2013-02-13 04:30:00,
2013-02-12 23:38:00,70.4,68.9,29.93,SSE,152,3.4,3.4,95,0.00,CLR,,0.00,0.0,WeatherDisplay:10.37,2013-02-13 04:38:00,
2013-02-12 23:55:00,70.3,69.1,29.94,SE,140,2.3,2.3,96,0.00,CLR,,0.00,0.0,WeatherDisplay:10.37,2013-02-13 04:55:00,